SL-14 DEB

Satellite information

Favourite Embed

Satellite Type and Status

DEBRISIN ORBIT

Key statistics

Satellite SL-14 DEB at a glance.

Uptime

12540

Days in orbit

Revolutions

≈ 13.2

Per day

Orbit

LEO

Low Earth Orbit

Inclination

82.6

Latest

Satellite identification and parameters

Extended collection of information and parameters for SL-14 DEB.

Object identification

Identified? True

Debris? True

Object name: SL-14 DEB

International designator: 1991-056AW

Object number (NORAD): 45308

Object ID (CCSDS): 45308

Country: COMMONWEALTH OF INDEPENDENT STATES (CIS)

Current information (Y/N): Y

RCS size: SMALL

Orbital parameters

Period: 108.858 minutes

Inclination: 82.5738 deg

SMA: 7552.091 km

Apoapsis: 1192.086 km

Periapsis: 1155.826 km

RAAN: 263.7135 deg

Eccentricy: 0.00240062

Argument of periapsis: 154.693 deg

Mean anomaly: 205.5378 deg

Mean motion: 13.22823602 rev/day

Mean motion (dot): 0.00000849 rev/day2

B* drag term: 0.0019929204 1/REarth

Two-line elements (TLE)

Creation date: Dec. 11, 2025, 7:14 p.m.

Reference frame: TEME

Reference center: EARTH

Epoch: Dec. 11, 2025, 11:51 a.m. UTC

TLE line 0: 0 SL-14 DEB

TLE line 1: 1 45308U 91056AW 25345.49377643 .00000849 00000-0 19929-2 0 9996

TLE line 2: 2 45308 82.5738 263.7135 0024006 154.6930 205.5378 13.22823602279548

Live tracking on map

Real-time ground track for satellite SL-14 DEB.

In-orbit conjunctions

A list of the most updated potential collisions computed for object SL-14 DEB.

Target Orbit TCA Probability of collision Miss distance Type
NIMBUS 2 SSO 2024-05-28 19:59:19 0.0001199893 616.0 (m) PAYLOAD

Associated space launch

Third generation meteorological satellite

SL-14 DEB was lifted into orbit during the mission ‘Tsiklon-3 | Meteor-3 5’, on board a Tsiklon-3 space rocket.

The launch took place on Aug. 15, 1991, 9:15 a.m. from 32/2.

For more information about the launch, click the button.

Launch to space Tsiklon-3 | Meteor-3 5
Tsiklon-3 | Meteor-3 5

Agency: N/A

Status: Launch Successful

Launch date: Aug. 15, 1991, 9:15 a.m. UTC

Rocket: Tsiklon-3

Launch pad: 32/2

Location: Plesetsk Cosmodrome, Russian Federation

...

Latest news about this satellite

There are no fresh news available about this satellite. Check back as we update our databases every day.


Newsletter sign-up

Weekly statistics, charts and insights to help you stay on top of the space industry.